Location: Ehrke Reservoir
(40.0279°N, 99.6641°W)
Time: 05:22:28
(UTC+00:00)

Cosmos 2227 Rocket - Pass Details

Date: 20 January 2020
Orbit: 840 x 843 km, 71.0° (Epoch: 24 February)

Event Time Altitude Azimuth Distance (km) Brightness Sun altitude
Rises 01:50:23 0° 213° (SSW) 3,383 5.9 -24.3°
Reaches altitude 10° 01:52:51 10° 218° (SW) 2,452 5.2 -24.8°
Maximum altitude 01:58:23 57° 296° (WNW) 989 2.7 -25.8°
Enters shadow 02:01:28 26° 5° (N) 1,597 3.5 -26.4°
